IRIDIUM 73 [-]

Last updated on Wed Jun 28 2023 00:03:02 GMT+0000 (Coordinated Universal Time)

1 25344U 98032C 23178.46924632 .00000675 00000+0 16956-3 0 9994 2 25344 86.4426 352.2706 0001606 94.0323 266.1065 14.49916143326378
UTC large
Height (km)
Speed (km/s)
/
Latitude / Longitude
Inclination (degrees)
Orbital Period (minutes)
Azimuth
Elevation
Range (km)
Doppler Factor

Next 0 passes for location: London (51.5072 / 0.1276)

Sorry there are no passes over London.